Zurück zum Katalog

STARLINK-5136

AktivKommunikationVLEO
NORAD 56414·PAYLOAD·🇺🇸 United States

Gestartet May 4, 2023 von Cape Canaveral Space Force Station

Loading…

Nächste Überflüge (nächste 24 Stunden)

TLE

AktuellSource: CelesTrak SupGP

Epoche: Sep 14, 2026, 21:41 UTC

1 56414C 23061AS  26257.90395833 -.00005956  00000+0 -21570-3 0  2575
2 56414  43.0002 198.5215 0001251 257.3880  29.7376 15.27584270    10

Verfolge STARLINK-5136 in Echtzeit mit AllMySat

Download on the App Store